owner,sensor,date,latitude,longitude,vertical_datum,sea_water_practical_salinity,qcFlag 
ENP,ioos.station.NOAA.NDBC:LMDF1:1,2019-03-01T00:00:00Z,25.1760,-80.6330,1.5,27.0,11111222 
ENP,ioos.station.NOAA.NDBC:LMDF1:1,2019-03-01T01:00:00Z,25.1760,-80.6330,1.5,27.0,11111222 
ENP,ioos.station.NOAA.NDBC:LMDF1:1,2019-03-01T02:00:00Z,25.1760,-80.6330,1.5,26.8,11111222 
ENP,ioos.station.NOAA.NDBC:LMDF1:1,2019-03-01T03:00:00Z,25.1760,-80.6330,1.5,26.87,1111122 
ENP,ioos.station.NOAA.NDBC:LMDF1:1,2019-03-01T04:00:00Z,25.1760,-80.6330,1.5,26.2,11111222 
ENP,ioos.station.NOAA.NDBC:LMDF1:1,2019-03-01T05:00:00Z,25.1760,-80.6330,1.5,26.86,1111122 
ENP,ioos.station.NOAA.NDBC:LMDF1:1,2019-03-01T06:00:00Z,25.1760,-80.6330,1.5,26.9,11111222 
ENP,ioos.station.NOAA.NDBC:LMDF1:1,2019-03-01T07:00:00Z,25.1760,-80.6330,1.5,26.12,1111122 
ENP,ioos.station.NOAA.NDBC:LMDF1:1,2019-03-01T08:00:00Z,25.1760,-80.6330,1.5,26.81,1111122 
ENP,ioos.station.NOAA.NDBC:LMDF1:1,2019-03-01T09:00:00Z,25.1760,-80.6330,1.5,26.69,1111122 
ENP,ioos.station.NOAA.NDBC:LMDF1:1,2019-03-01T10:00:00Z,25.1760,-80.6330,1.5,26.29,1111122 
ENP,ioos.station.NOAA.NDBC:LMDF1:1,2019-03-01T11:00:00Z,25.1760,-80.6330,1.5,26.63,1111122 
ENP,ioos.station.NOAA.NDBC:LMDF1:1,2019-03-01T12:00:00Z,25.1760,-80.6330,1.5,26.46,1111122 
ENP,ioos.station.NOAA.NDBC:LMDF1:1,2019-03-01T13:00:00Z,25.1760,-80.6330,1.5,25.9,1111122 
ENP,ioos.station.NOAA.NDBC:LMDF1:1,2019-03-01T14:00:00Z,25.1760,-80.6330,1.5,25.58,1111122 
ENP,ioos.station.NOAA.NDBC:LMDF1:1,2019-03-01T15:00:00Z,25.1760,-80.6330,1.5,26.12,1111122 
ENP,ioos.station.NOAA.NDBC:LMDF1:1,2019-03-01T16:00:00Z,25.1760,-80.6330,1.5,26.29,1111122 
ENP,ioos.station.NOAA.NDBC:LMDF1:1,2019-03-01T17:00:00Z,25.1760,-80.6330,1.5,25.85,1111122 
ENP,ioos.station.NOAA.NDBC:LMDF1:1,2019-03-01T18:00:00Z,25.1760,-80.6330,1.5,26.6,11111222 
ENP,ioos.station.NOAA.NDBC:LMDF1:1,2019-03-01T19:00:00Z,25.1760,-80.6330,1.5,25.52,1111122 
ENP,ioos.station.NOAA.NDBC:LMDF1:1,2019-03-01T20:00:00Z,25.1760,-80.6330,1.5,26.0,1111122 
ENP,ioos.station.NOAA.NDBC:LMDF1:1,2019-03-01T21:00:00Z,25.1760,-80.6330,1.5,25.79,1111122 
ENP,ioos.station.NOAA.NDBC:LMDF1:1,2019-03-01T22:00:00Z,25.1760,-80.6330,1.5,26.58,1111122 
ENP,ioos.station.NOAA.NDBC:LMDF1:1,2019-03-01T23:00:00Z,25.1760,-80.6330,1.5,26.24,1111122 
ENP,ioos.station.NOAA.NDBC:LMDF1:1,2019-03-02T00:00:00Z,25.1760,-80.6330,1.5,26.0,1111122 
ENP,ioos.station.NOAA.NDBC:LMDF1:1,2019-03-02T01:00:00Z,25.1760,-80.6330,1.5,26.28,1111122 
ENP,ioos.station.NOAA.NDBC:LMDF1:1,2019-03-02T02:00:00Z,25.1760,-80.6330,1.5,26.7,11111222 
ENP,ioos.station.NOAA.NDBC:LMDF1:1,2019-03-02T03:00:00Z,25.1760,-80.6330,1.5,26.83,1111122 
ENP,ioos.station.NOAA.NDBC:LMDF1:1,2019-03-02T04:00:00Z,25.1760,-80.6330,1.5,26.8,11111222 
ENP,ioos.station.NOAA.NDBC:LMDF1:1,2019-03-02T05:00:00Z,25.1760,-80.6330,1.5,26.89,1111122 
ENP,ioos.station.NOAA.NDBC:LMDF1:1,2019-03-02T06:00:00Z,25.1760,-80.6330,1.5,26.8,11111222 
ENP,ioos.station.NOAA.NDBC:LMDF1:1,2019-03-02T07:00:00Z,25.1760,-80.6330,1.5,25.95,1111122 
ENP,ioos.station.NOAA.NDBC:LMDF1:1,2019-03-02T08:00:00Z,25.1760,-80.6330,1.5,26.38,1111122 
ENP,ioos.station.NOAA.NDBC:LMDF1:1,2019-03-02T09:00:00Z,25.1760,-80.6330,1.5,26.68,1111122 
ENP,ioos.station.NOAA.NDBC:LMDF1:1,2019-03-02T10:00:00Z,25.1760,-80.6330,1.5,27.15,1111122 
ENP,ioos.station.NOAA.NDBC:LMDF1:1,2019-03-02T11:00:00Z,25.1760,-80.6330,1.5,27.12,1111122 
ENP,ioos.station.NOAA.NDBC:LMDF1:1,2019-03-02T12:00:00Z,25.1760,-80.6330,1.5,27.4,1111122 
ENP,ioos.station.NOAA.NDBC:LMDF1:1,2019-03-02T13:00:00Z,25.1760,-80.6330,1.5,26.63,1111122 
ENP,ioos.station.NOAA.NDBC:LMDF1:1,2019-03-02T14:00:00Z,25.1760,-80.6330,1.5,27.37,1111122 
ENP,ioos.station.NOAA.NDBC:LMDF1:1,2019-03-02T15:00:00Z,25.1760,-80.6330,1.5,27.55,1111122 
ENP,ioos.station.NOAA.NDBC:LMDF1:1,2019-03-02T16:00:00Z,25.1760,-80.6330,1.5,27.43,1111122 
ENP,ioos.station.NOAA.NDBC:LMDF1:1,2019-03-02T17:00:00Z,25.1760,-80.6330,1.5,27.22,1111122 
ENP,ioos.station.NOAA.NDBC:LMDF1:1,2019-03-02T18:00:00Z,25.1760,-80.6330,1.5,27.5,11111222 
ENP,ioos.station.NOAA.NDBC:LMDF1:1,2019-03-02T19:00:00Z,25.1760,-80.6330,1.5,27.29,1111122 
ENP,ioos.station.NOAA.NDBC:LMDF1:1,2019-03-02T20:00:00Z,25.1760,-80.6330,1.5,27.15,1111122 
ENP,ioos.station.NOAA.NDBC:LMDF1:1,2019-03-02T21:00:00Z,25.1760,-80.6330,1.5,27.17,1111122 
ENP,ioos.station.NOAA.NDBC:LMDF1:1,2019-03-02T22:00:00Z,25.1760,-80.6330,1.5,26.61,1111122 
ENP,ioos.station.NOAA.NDBC:LMDF1:1,2019-03-02T23:00:00Z,25.1760,-80.6330,1.5,27.08,1111122 
ENP,ioos.station.NOAA.NDBC:LMDF1:1,2019-03-03T00:00:00Z,25.1760,-80.6330,1.5,27.12,1111122 
ENP,ioos.station.NOAA.NDBC:LMDF1:1,2019-03-03T01:00:00Z,25.1760,-80.6330,1.5,27.11,1111122 
ENP,ioos.station.NOAA.NDBC:LMDF1:1,2019-03-03T02:00:00Z,25.1760,-80.6330,1.5,26.8,11111222 
ENP,ioos.station.NOAA.NDBC:LMDF1:1,2019-03-03T03:00:00Z,25.1760,-80.6330,1.5,26.83,1111122 
ENP,ioos.station.NOAA.NDBC:LMDF1:1,2019-03-03T04:00:00Z,25.1760,-80.6330,1.5,26.6,11111222 
ENP,ioos.station.NOAA.NDBC:LMDF1:1,2019-03-03T05:00:00Z,25.1760,-80.6330,1.5,26.67,1111122 
ENP,ioos.station.NOAA.NDBC:LMDF1:1,2019-03-03T06:00:00Z,25.1760,-80.6330,1.5,26.78,1111122 
ENP,ioos.station.NOAA.NDBC:LMDF1:1,2019-03-03T07:00:00Z,25.1760,-80.6330,1.5,25.92,1111122 
ENP,ioos.station.NOAA.NDBC:LMDF1:1,2019-03-03T08:00:00Z,25.1760,-80.6330,1.5,26.4,1111122 
ENP,ioos.station.NOAA.NDBC:LMDF1:1,2019-03-03T09:00:00Z,25.1760,-80.6330,1.5,26.77,1111122 
ENP,ioos.station.NOAA.NDBC:LMDF1:1,2019-03-03T10:00:00Z,25.1760,-80.6330,1.5,26.77,1111122 
ENP,ioos.station.NOAA.NDBC:LMDF1:1,2019-03-03T11:00:00Z,25.1760,-80.6330,1.5,26.69,1111122 
ENP,ioos.station.NOAA.NDBC:LMDF1:1,2019-03-03T12:00:00Z,25.1760,-80.6330,1.5,26.32,1111122 
ENP,ioos.station.NOAA.NDBC:LMDF1:1,2019-03-03T13:00:00Z,25.1760,-80.6330,1.5,25.84,1111122 
ENP,ioos.station.NOAA.NDBC:LMDF1:1,2019-03-03T14:00:00Z,25.1760,-80.6330,1.5,25.84,1111122 
ENP,ioos.station.NOAA.NDBC:LMDF1:1,2019-03-03T15:00:00Z,25.1760,-80.6330,1.5,26.58,1111122 
ENP,ioos.station.NOAA.NDBC:LMDF1:1,2019-03-03T16:00:00Z,25.1760,-80.6330,1.5,26.42,1111122 
ENP,ioos.station.NOAA.NDBC:LMDF1:1,2019-03-03T17:00:00Z,25.1760,-80.6330,1.5,26.58,1111122 
ENP,ioos.station.NOAA.NDBC:LMDF1:1,2019-03-03T18:00:00Z,25.1760,-80.6330,1.5,26.6,11111222 
ENP,ioos.station.NOAA.NDBC:LMDF1:1,2019-03-03T19:00:00Z,25.1760,-80.6330,1.5,25.91,1111122 
ENP,ioos.station.NOAA.NDBC:LMDF1:1,2019-03-03T20:00:00Z,25.1760,-80.6330,1.5,26.34,1111122 
ENP,ioos.station.NOAA.NDBC:LMDF1:1,2019-03-03T21:00:00Z,25.1760,-80.6330,1.5,25.73,1111122 
ENP,ioos.station.NOAA.NDBC:LMDF1:1,2019-03-03T22:00:00Z,25.1760,-80.6330,1.5,25.15,1111122 
ENP,ioos.station.NOAA.NDBC:LMDF1:1,2019-03-03T23:00:00Z,25.1760,-80.6330,1.5,25.81,1111122 
ENP,ioos.station.NOAA.NDBC:LMDF1:1,2019-03-04T00:00:00Z,25.1760,-80.6330,1.5,26.4,1111122 
ENP,ioos.station.NOAA.NDBC:LMDF1:1,2019-03-04T01:00:00Z,25.1760,-80.6330,1.5,26.34,1111122 
ENP,ioos.station.NOAA.NDBC:LMDF1:1,2019-03-04T02:00:00Z,25.1760,-80.6330,1.5,25.9,11111222 
ENP,ioos.station.NOAA.NDBC:LMDF1:1,2019-03-04T03:00:00Z,25.1760,-80.6330,1.5,26.19,1111122 
ENP,ioos.station.NOAA.NDBC:LMDF1:1,2019-03-04T04:00:00Z,25.1760,-80.6330,1.5,26.4,11111222 
ENP,ioos.station.NOAA.NDBC:LMDF1:1,2019-03-04T05:00:00Z,25.1760,-80.6330,1.5,26.65,1111122 
ENP,ioos.station.NOAA.NDBC:LMDF1:1,2019-03-04T06:00:00Z,25.1760,-80.6330,1.5,26.8,1111122 
ENP,ioos.station.NOAA.NDBC:LMDF1:1,2019-03-04T07:00:00Z,25.1760,-80.6330,1.5,26.93,1111122 
ENP,ioos.station.NOAA.NDBC:LMDF1:1,2019-03-04T08:00:00Z,25.1760,-80.6330,1.5,26.68,1111122 
ENP,ioos.station.NOAA.NDBC:LMDF1:1,2019-03-04T09:00:00Z,25.1760,-80.6330,1.5,26.51,1111122 
ENP,ioos.station.NOAA.NDBC:LMDF1:1,2019-03-04T10:00:00Z,25.1760,-80.6330,1.5,26.66,1111122 
ENP,ioos.station.NOAA.NDBC:LMDF1:1,2019-03-04T11:00:00Z,25.1760,-80.6330,1.5,26.83,1111122 
ENP,ioos.station.NOAA.NDBC:LMDF1:1,2019-03-04T12:00:00Z,25.1760,-80.6330,1.5,26.48,1111122 
ENP,ioos.station.NOAA.NDBC:LMDF1:1,2019-03-04T13:00:00Z,25.1760,-80.6330,1.5,26.53,1111122 
ENP,ioos.station.NOAA.NDBC:LMDF1:1,2019-03-04T14:00:00Z,25.1760,-80.6330,1.5,26.7,1111122 
ENP,ioos.station.NOAA.NDBC:LMDF1:1,2019-03-04T15:00:00Z,25.1760,-80.6330,1.5,26.78,1111122 
ENP,ioos.station.NOAA.NDBC:LMDF1:1,2019-03-04T16:00:00Z,25.1760,-80.6330,1.5,26.92,1111122 
ENP,ioos.station.NOAA.NDBC:LMDF1:1,2019-03-04T17:00:00Z,25.1760,-80.6330,1.5,26.87,1111122 
ENP,ioos.station.NOAA.NDBC:LMDF1:1,2019-03-04T18:00:00Z,25.1760,-80.6330,1.5,26.85,1111122 
ENP,ioos.station.NOAA.NDBC:LMDF1:1,2019-03-04T19:00:00Z,25.1760,-80.6330,1.5,26.84,1111122 
ENP,ioos.station.NOAA.NDBC:LMDF1:1,2019-03-04T20:00:00Z,25.1760,-80.6330,1.5,26.89,1111122 
ENP,ioos.station.NOAA.NDBC:LMDF1:1,2019-03-04T21:00:00Z,25.1760,-80.6330,1.5,26.58,1111122 
ENP,ioos.station.NOAA.NDBC:LMDF1:1,2019-03-04T22:00:00Z,25.1760,-80.6330,1.5,26.39,1111122 
ENP,ioos.station.NOAA.NDBC:LMDF1:1,2019-03-04T23:00:00Z,25.1760,-80.6330,1.5,26.39,1111122 
ENP,ioos.station.NOAA.NDBC:LMDF1:1,2019-03-05T00:00:00Z,25.1760,-80.6330,1.5,26.58,1111122 
ENP,ioos.station.NOAA.NDBC:LMDF1:1,2019-03-05T01:00:00Z,25.1760,-80.6330,1.5,26.68,1111122 
ENP,ioos.station.NOAA.NDBC:LMDF1:1,2019-03-05T02:00:00Z,25.1760,-80.6330,1.5,26.8,1111122 
ENP,ioos.station.NOAA.NDBC:LMDF1:1,2019-03-05T03:00:00Z,25.1760,-80.6330,1.5,26.87,1111122 
ENP,ioos.station.NOAA.NDBC:LMDF1:1,2019-03-05T04:00:00Z,25.1760,-80.6330,1.5,26.9,11111222 
ENP,ioos.station.NOAA.NDBC:LMDF1:1,2019-03-05T05:00:00Z,25.1760,-80.6330,1.5,26.9,1111122 
ENP,ioos.station.NOAA.NDBC:LMDF1:1,2019-03-05T06:00:00Z,25.1760,-80.6330,1.5,26.91,1111122 
ENP,ioos.station.NOAA.NDBC:LMDF1:1,2019-03-05T07:00:00Z,25.1760,-80.6330,1.5,26.92,1111122 
ENP,ioos.station.NOAA.NDBC:LMDF1:1,2019-03-05T08:00:00Z,25.1760,-80.6330,1.5,26.92,1111122 
ENP,ioos.station.NOAA.NDBC:LMDF1:1,2019-03-05T09:00:00Z,25.1760,-80.6330,1.5,26.92,1111122 
ENP,ioos.station.NOAA.NDBC:LMDF1:1,2019-03-05T10:00:00Z,25.1760,-80.6330,1.5,26.94,1111122 
ENP,ioos.station.NOAA.NDBC:LMDF1:1,2019-03-05T11:00:00Z,25.1760,-80.6330,1.5,26.94,1111122 
ENP,ioos.station.NOAA.NDBC:LMDF1:1,2019-03-05T12:00:00Z,25.1760,-80.6330,1.5,26.92,1111122 
ENP,ioos.station.NOAA.NDBC:LMDF1:1,2019-03-05T13:00:00Z,25.1760,-80.6330,1.5,26.56,1111122 
ENP,ioos.station.NOAA.NDBC:LMDF1:1,2019-03-05T14:00:00Z,25.1760,-80.6330,1.5,27.54,1111122 
ENP,ioos.station.NOAA.NDBC:LMDF1:1,2019-03-05T15:00:00Z,25.1760,-80.6330,1.5,27.67,1111122 
ENP,ioos.station.NOAA.NDBC:LMDF1:1,2019-03-05T16:00:00Z,25.1760,-80.6330,1.5,27.66,1111122 
ENP,ioos.station.NOAA.NDBC:LMDF1:1,2019-03-05T17:00:00Z,25.1760,-80.6330,1.5,27.64,1111122 
ENP,ioos.station.NOAA.NDBC:LMDF1:1,2019-03-05T18:00:00Z,25.1760,-80.6330,1.5,27.57,1111122 
ENP,ioos.station.NOAA.NDBC:LMDF1:1,2019-03-05T19:00:00Z,25.1760,-80.6330,1.5,27.53,1111122 
ENP,ioos.station.NOAA.NDBC:LMDF1:1,2019-03-05T20:00:00Z,25.1760,-80.6330,1.5,27.57,1111122 
ENP,ioos.station.NOAA.NDBC:LMDF1:1,2019-03-05T21:00:00Z,25.1760,-80.6330,1.5,26.2,11111222 
ENP,ioos.station.NOAA.NDBC:LMDF1:1,2019-03-05T22:00:00Z,25.1760,-80.6330,1.5,26.79,1111122 
ENP,ioos.station.NOAA.NDBC:LMDF1:1,2019-03-05T23:00:00Z,25.1760,-80.6330,1.5,27.5,1111122 
ENP,ioos.station.NOAA.NDBC:LMDF1:1,2019-03-06T00:00:00Z,25.1760,-80.6330,1.5,25.24,1111122 
ENP,ioos.station.NOAA.NDBC:LMDF1:1,2019-03-06T01:00:00Z,25.1760,-80.6330,1.5,26.21,1111122 
ENP,ioos.station.NOAA.NDBC:LMDF1:1,2019-03-06T02:00:00Z,25.1760,-80.6330,1.5,27.25,1111122 
ENP,ioos.station.NOAA.NDBC:LMDF1:1,2019-03-06T03:00:00Z,25.1760,-80.6330,1.5,27.42,1111122 
ENP,ioos.station.NOAA.NDBC:LMDF1:1,2019-03-06T04:00:00Z,25.1760,-80.6330,1.5,27.5,11111222 
ENP,ioos.station.NOAA.NDBC:LMDF1:1,2019-03-06T05:00:00Z,25.1760,-80.6330,1.5,27.62,1111122 
ENP,ioos.station.NOAA.NDBC:LMDF1:1,2019-03-06T06:00:00Z,25.1760,-80.6330,1.5,27.67,1111122 
ENP,ioos.station.NOAA.NDBC:LMDF1:1,2019-03-06T07:00:00Z,25.1760,-80.6330,1.5,26.0,1111122 
ENP,ioos.station.NOAA.NDBC:LMDF1:1,2019-03-06T08:00:00Z,25.1760,-80.6330,1.5,24.95,1111122 
ENP,ioos.station.NOAA.NDBC:LMDF1:1,2019-03-06T09:00:00Z,25.1760,-80.6330,1.5,24.14,1111122 
ENP,ioos.station.NOAA.NDBC:LMDF1:1,2019-03-06T10:00:00Z,25.1760,-80.6330,1.5,26.78,1111122 
ENP,ioos.station.NOAA.NDBC:LMDF1:1,2019-03-06T11:00:00Z,25.1760,-80.6330,1.5,27.41,1111122 
ENP,ioos.station.NOAA.NDBC:LMDF1:1,2019-03-06T12:00:00Z,25.1760,-80.6330,1.5,24.79,1111122 
ENP,ioos.station.NOAA.NDBC:LMDF1:1,2019-03-06T13:00:00Z,25.1760,-80.6330,1.5,23.12,1111122 
ENP,ioos.station.NOAA.NDBC:LMDF1:1,2019-03-06T14:00:00Z,25.1760,-80.6330,1.5,23.51,1111122 
ENP,ioos.station.NOAA.NDBC:LMDF1:1,2019-03-06T15:00:00Z,25.1760,-80.6330,1.5,26.83,1111122 
ENP,ioos.station.NOAA.NDBC:LMDF1:1,2019-03-06T16:00:00Z,25.1760,-80.6330,1.5,27.79,1111122 
ENP,ioos.station.NOAA.NDBC:LMDF1:1,2019-03-06T17:00:00Z,25.1760,-80.6330,1.5,27.71,1111122 
ENP,ioos.station.NOAA.NDBC:LMDF1:1,2019-03-06T18:00:00Z,25.1760,-80.6330,1.5,27.39,1111122 
ENP,ioos.station.NOAA.NDBC:LMDF1:1,2019-03-06T19:00:00Z,25.1760,-80.6330,1.5,27.44,1111122 
ENP,ioos.station.NOAA.NDBC:LMDF1:1,2019-03-06T20:00:00Z,25.1760,-80.6330,1.5,27.64,1111122 
ENP,ioos.station.NOAA.NDBC:LMDF1:1,2019-03-06T21:00:00Z,25.1760,-80.6330,1.5,26.55,1111122 
ENP,ioos.station.NOAA.NDBC:LMDF1:1,2019-03-06T22:00:00Z,25.1760,-80.6330,1.5,26.51,1111122 
ENP,ioos.station.NOAA.NDBC:LMDF1:1,2019-03-06T23:00:00Z,25.1760,-80.6330,1.5,27.0,1111122 
ENP,ioos.station.NOAA.NDBC:LMDF1:1,2019-03-07T00:00:00Z,25.1760,-80.6330,1.5,26.36,1111122 
ENP,ioos.station.NOAA.NDBC:LMDF1:1,2019-03-07T01:00:00Z,25.1760,-80.6330,1.5,25.56,1111122 
ENP,ioos.station.NOAA.NDBC:LMDF1:1,2019-03-07T02:00:00Z,25.1760,-80.6330,1.5,24.62,1111122 
ENP,ioos.station.NOAA.NDBC:LMDF1:1,2019-03-07T03:00:00Z,25.1760,-80.6330,1.5,24.25,1111122 
ENP,ioos.station.NOAA.NDBC:LMDF1:1,2019-03-07T04:00:00Z,25.1760,-80.6330,1.5,25.8,11111222 
ENP,ioos.station.NOAA.NDBC:LMDF1:1,2019-03-07T05:00:00Z,25.1760,-80.6330,1.5,26.14,1111122 
ENP,ioos.station.NOAA.NDBC:LMDF1:1,2019-03-07T06:00:00Z,25.1760,-80.6330,1.5,27.14,1111122 
ENP,ioos.station.NOAA.NDBC:LMDF1:1,2019-03-07T07:00:00Z,25.1760,-80.6330,1.5,27.72,1111122 
ENP,ioos.station.NOAA.NDBC:LMDF1:1,2019-03-07T08:00:00Z,25.1760,-80.6330,1.5,27.72,1111122 
ENP,ioos.station.NOAA.NDBC:LMDF1:1,2019-03-07T09:00:00Z,25.1760,-80.6330,1.5,28.05,1111122 
ENP,ioos.station.NOAA.NDBC:LMDF1:1,2019-03-07T10:00:00Z,25.1760,-80.6330,1.5,28.17,1111122 
ENP,ioos.station.NOAA.NDBC:LMDF1:1,2019-03-07T11:00:00Z,25.1760,-80.6330,1.5,28.29,1111122 
ENP,ioos.station.NOAA.NDBC:LMDF1:1,2019-03-07T12:00:00Z,25.1760,-80.6330,1.5,28.41,1111122 
ENP,ioos.station.NOAA.NDBC:LMDF1:1,2019-03-07T13:00:00Z,25.1760,-80.6330,1.5,26.0,1111122 
ENP,ioos.station.NOAA.NDBC:LMDF1:1,2019-03-07T14:00:00Z,25.1760,-80.6330,1.5,26.95,1111122 
ENP,ioos.station.NOAA.NDBC:LMDF1:1,2019-03-07T15:00:00Z,25.1760,-80.6330,1.5,28.63,1111122 
ENP,ioos.station.NOAA.NDBC:LMDF1:1,2019-03-07T16:00:00Z,25.1760,-80.6330,1.5,28.45,1111122 
ENP,ioos.station.NOAA.NDBC:LMDF1:1,2019-03-07T17:00:00Z,25.1760,-80.6330,1.5,27.44,1111122 
ENP,ioos.station.NOAA.NDBC:LMDF1:1,2019-03-07T18:00:00Z,25.1760,-80.6330,1.5,27.22,1111122 
ENP,ioos.station.NOAA.NDBC:LMDF1:1,2019-03-07T19:00:00Z,25.1760,-80.6330,1.5,26.8,1111122 
ENP,ioos.station.NOAA.NDBC:LMDF1:1,2019-03-07T20:00:00Z,25.1760,-80.6330,1.5,26.56,1111122 
ENP,ioos.station.NOAA.NDBC:LMDF1:1,2019-03-07T21:00:00Z,25.1760,-80.6330,1.5,26.19,1111122 
ENP,ioos.station.NOAA.NDBC:LMDF1:1,2019-03-07T22:00:00Z,25.1760,-80.6330,1.5,26.1,1111122 
ENP,ioos.station.NOAA.NDBC:LMDF1:1,2019-03-07T23:00:00Z,25.1760,-80.6330,1.5,26.15,1111122 
ENP,ioos.station.NOAA.NDBC:LMDF1:1,2019-03-08T00:00:00Z,25.1760,-80.6330,1.5,23.36,1111122 
ENP,ioos.station.NOAA.NDBC:LMDF1:1,2019-03-08T01:00:00Z,25.1760,-80.6330,1.5,25.2,1111122 
ENP,ioos.station.NOAA.NDBC:LMDF1:1,2019-03-08T02:00:00Z,25.1760,-80.6330,1.5,22.14,1111122 
ENP,ioos.station.NOAA.NDBC:LMDF1:1,2019-03-08T03:00:00Z,25.1760,-80.6330,1.5,26.24,1111122 
ENP,ioos.station.NOAA.NDBC:LMDF1:1,2019-03-08T04:00:00Z,25.1760,-80.6330,1.5,26.5,11111222 
ENP,ioos.station.NOAA.NDBC:LMDF1:1,2019-03-08T05:00:00Z,25.1760,-80.6330,1.5,25.44,1111122 
ENP,ioos.station.NOAA.NDBC:LMDF1:1,2019-03-08T06:00:00Z,25.1760,-80.6330,1.5,26.3,1111122 
ENP,ioos.station.NOAA.NDBC:LMDF1:1,2019-03-08T07:00:00Z,25.1760,-80.6330,1.5,26.62,1111122 
ENP,ioos.station.NOAA.NDBC:LMDF1:1,2019-03-08T08:00:00Z,25.1760,-80.6330,1.5,26.71,1111122 
ENP,ioos.station.NOAA.NDBC:LMDF1:1,2019-03-08T09:00:00Z,25.1760,-80.6330,1.5,26.4,1111122 
ENP,ioos.station.NOAA.NDBC:LMDF1:1,2019-03-08T10:00:00Z,25.1760,-80.6330,1.5,26.38,1111122 
ENP,ioos.station.NOAA.NDBC:LMDF1:1,2019-03-08T11:00:00Z,25.1760,-80.6330,1.5,25.88,1111122 
ENP,ioos.station.NOAA.NDBC:LMDF1:1,2019-03-08T12:00:00Z,25.1760,-80.6330,1.5,26.58,1111122 
ENP,ioos.station.NOAA.NDBC:LMDF1:1,2019-03-08T13:00:00Z,25.1760,-80.6330,1.5,26.12,1111122 
ENP,ioos.station.NOAA.NDBC:LMDF1:1,2019-03-08T14:00:00Z,25.1760,-80.6330,1.5,27.0,11111222 
ENP,ioos.station.NOAA.NDBC:LMDF1:1,2019-03-08T15:00:00Z,25.1760,-80.6330,1.5,27.49,1111122 
ENP,ioos.station.NOAA.NDBC:LMDF1:1,2019-03-08T16:00:00Z,25.1760,-80.6330,1.5,27.39,1111122 
ENP,ioos.station.NOAA.NDBC:LMDF1:1,2019-03-08T17:00:00Z,25.1760,-80.6330,1.5,27.43,1111122 
ENP,ioos.station.NOAA.NDBC:LMDF1:1,2019-03-08T18:00:00Z,25.1760,-80.6330,1.5,27.42,1111122 
ENP,ioos.station.NOAA.NDBC:LMDF1:1,2019-03-08T19:00:00Z,25.1760,-80.6330,1.5,27.41,1111122 
ENP,ioos.station.NOAA.NDBC:LMDF1:1,2019-03-08T20:00:00Z,25.1760,-80.6330,1.5,27.6,1111122 
ENP,ioos.station.NOAA.NDBC:LMDF1:1,2019-03-08T21:00:00Z,25.1760,-80.6330,1.5,27.51,1111122 
ENP,ioos.station.NOAA.NDBC:LMDF1:1,2019-03-08T22:00:00Z,25.1760,-80.6330,1.5,27.39,1111122 
ENP,ioos.station.NOAA.NDBC:LMDF1:1,2019-03-08T23:00:00Z,25.1760,-80.6330,1.5,27.03,1111122 
ENP,ioos.station.NOAA.NDBC:LMDF1:1,2019-03-09T00:00:00Z,25.1760,-80.6330,1.5,26.84,1111122 
ENP,ioos.station.NOAA.NDBC:LMDF1:1,2019-03-09T01:00:00Z,25.1760,-80.6330,1.5,27.28,1111122 
ENP,ioos.station.NOAA.NDBC:LMDF1:1,2019-03-09T02:00:00Z,25.1760,-80.6330,1.5,27.3,11111222 
ENP,ioos.station.NOAA.NDBC:LMDF1:1,2019-03-09T03:00:00Z,25.1760,-80.6330,1.5,27.31,1111122 
ENP,ioos.station.NOAA.NDBC:LMDF1:1,2019-03-09T04:00:00Z,25.1760,-80.6330,1.5,27.2,11111222 
ENP,ioos.station.NOAA.NDBC:LMDF1:1,2019-03-09T05:00:00Z,25.1760,-80.6330,1.5,26.07,1111122 
ENP,ioos.station.NOAA.NDBC:LMDF1:1,2019-03-09T06:00:00Z,25.1760,-80.6330,1.5,27.1,1111122 
ENP,ioos.station.NOAA.NDBC:LMDF1:1,2019-03-09T07:00:00Z,25.1760,-80.6330,1.5,27.39,1111122 
ENP,ioos.station.NOAA.NDBC:LMDF1:1,2019-03-09T08:00:00Z,25.1760,-80.6330,1.5,27.69,1111122 
ENP,ioos.station.NOAA.NDBC:LMDF1:1,2019-03-09T09:00:00Z,25.1760,-80.6330,1.5,27.85,1111122 
ENP,ioos.station.NOAA.NDBC:LMDF1:1,2019-03-09T10:00:00Z,25.1760,-80.6330,1.5,27.94,1111122 
ENP,ioos.station.NOAA.NDBC:LMDF1:1,2019-03-09T11:00:00Z,25.1760,-80.6330,1.5,28.07,1111122 
ENP,ioos.station.NOAA.NDBC:LMDF1:1,2019-03-09T12:00:00Z,25.1760,-80.6330,1.5,27.94,1111122 
ENP,ioos.station.NOAA.NDBC:LMDF1:1,2019-03-09T13:00:00Z,25.1760,-80.6330,1.5,27.2,1111122 
ENP,ioos.station.NOAA.NDBC:LMDF1:1,2019-03-09T14:00:00Z,25.1760,-80.6330,1.5,27.76,1111122 
ENP,ioos.station.NOAA.NDBC:LMDF1:1,2019-03-09T15:00:00Z,25.1760,-80.6330,1.5,28.07,1111122 
ENP,ioos.station.NOAA.NDBC:LMDF1:1,2019-03-09T16:00:00Z,25.1760,-80.6330,1.5,28.12,1111122 
ENP,ioos.station.NOAA.NDBC:LMDF1:1,2019-03-09T17:00:00Z,25.1760,-80.6330,1.5,28.13,1111122 
ENP,ioos.station.NOAA.NDBC:LMDF1:1,2019-03-09T18:00:00Z,25.1760,-80.6330,1.5,28.24,1111122 
ENP,ioos.station.NOAA.NDBC:LMDF1:1,2019-03-09T19:00:00Z,25.1760,-80.6330,1.5,28.45,1111122 
ENP,ioos.station.NOAA.NDBC:LMDF1:1,2019-03-09T20:00:00Z,25.1760,-80.6330,1.5,28.47,1111122 
ENP,ioos.station.NOAA.NDBC:LMDF1:1,2019-03-09T21:00:00Z,25.1760,-80.6330,1.5,28.62,1111122 
ENP,ioos.station.NOAA.NDBC:LMDF1:1,2019-03-09T22:00:00Z,25.1760,-80.6330,1.5,28.58,1111122 
ENP,ioos.station.NOAA.NDBC:LMDF1:1,2019-03-09T23:00:00Z,25.1760,-80.6330,1.5,28.62,1111122 
ENP,ioos.station.NOAA.NDBC:LMDF1:1,2019-03-10T00:00:00Z,25.1760,-80.6330,1.5,28.45,1111122 
ENP,ioos.station.NOAA.NDBC:LMDF1:1,2019-03-10T01:00:00Z,25.1760,-80.6330,1.5,27.24,1111122 
ENP,ioos.station.NOAA.NDBC:LMDF1:1,2019-03-10T02:00:00Z,25.1760,-80.6330,1.5,27.49,1111122 
ENP,ioos.station.NOAA.NDBC:LMDF1:1,2019-03-10T03:00:00Z,25.1760,-80.6330,1.5,28.1,11111222 
ENP,ioos.station.NOAA.NDBC:LMDF1:1,2019-03-10T04:00:00Z,25.1760,-80.6330,1.5,27.28,1111122 
ENP,ioos.station.NOAA.NDBC:LMDF1:1,2019-03-10T05:00:00Z,25.1760,-80.6330,1.5,28.14,1111122 
ENP,ioos.station.NOAA.NDBC:LMDF1:1,2019-03-10T06:00:00Z,25.1760,-80.6330,1.5,28.29,1111122 
ENP,ioos.station.NOAA.NDBC:LMDF1:1,2019-03-10T08:00:00Z,25.1760,-80.6330,1.5,28.24,1111122 
ENP,ioos.station.NOAA.NDBC:LMDF1:1,2019-03-10T09:00:00Z,25.1760,-80.6330,1.5,28.33,1111122 
ENP,ioos.station.NOAA.NDBC:LMDF1:1,2019-03-10T10:00:00Z,25.1760,-80.6330,1.5,28.31,1111122 
ENP,ioos.station.NOAA.NDBC:LMDF1:1,2019-03-10T11:00:00Z,25.1760,-80.6330,1.5,28.44,1111122 
ENP,ioos.station.NOAA.NDBC:LMDF1:1,2019-03-10T12:00:00Z,25.1760,-80.6330,1.5,28.39,1111122 
ENP,ioos.station.NOAA.NDBC:LMDF1:1,2019-03-10T13:00:00Z,25.1760,-80.6330,1.5,27.64,1111122 
ENP,ioos.station.NOAA.NDBC:LMDF1:1,2019-03-10T14:00:00Z,25.1760,-80.6330,1.5,27.79,1111122 
ENP,ioos.station.NOAA.NDBC:LMDF1:1,2019-03-10T15:00:00Z,25.1760,-80.6330,1.5,28.39,1111122 
ENP,ioos.station.NOAA.NDBC:LMDF1:1,2019-03-10T16:00:00Z,25.1760,-80.6330,1.5,28.42,1111122 
ENP,ioos.station.NOAA.NDBC:LMDF1:1,2019-03-10T17:00:00Z,25.1760,-80.6330,1.5,28.32,1111122 
ENP,ioos.station.NOAA.NDBC:LMDF1:1,2019-03-10T18:00:00Z,25.1760,-80.6330,1.5,28.42,1111122 
ENP,ioos.station.NOAA.NDBC:LMDF1:1,2019-03-10T19:00:00Z,25.1760,-80.6330,1.5,28.42,1111122 
ENP,ioos.station.NOAA.NDBC:LMDF1:1,2019-03-10T20:00:00Z,25.1760,-80.6330,1.5,28.41,1111122 
ENP,ioos.station.NOAA.NDBC:LMDF1:1,2019-03-10T21:00:00Z,25.1760,-80.6330,1.5,28.44,1111122 
ENP,ioos.station.NOAA.NDBC:LMDF1:1,2019-03-10T22:00:00Z,25.1760,-80.6330,1.5,28.5,11111222 
ENP,ioos.station.NOAA.NDBC:LMDF1:1,2019-03-10T23:00:00Z,25.1760,-80.6330,1.5,28.2,11111222 
ENP,ioos.station.NOAA.NDBC:LMDF1:1,2019-03-11T00:00:00Z,25.1760,-80.6330,1.5,27.5,11111222 
ENP,ioos.station.NOAA.NDBC:LMDF1:1,2019-03-11T01:00:00Z,25.1760,-80.6330,1.5,28.2,11111222 
ENP,ioos.station.NOAA.NDBC:LMDF1:1,2019-03-11T02:00:00Z,25.1760,-80.6330,1.5,28.5,11111222 
ENP,ioos.station.NOAA.NDBC:LMDF1:1,2019-03-11T03:00:00Z,25.1760,-80.6330,1.5,28.1,11111222 
ENP,ioos.station.NOAA.NDBC:LMDF1:1,2019-03-11T04:00:00Z,25.1760,-80.6330,1.5,26.36,1111122 
ENP,ioos.station.NOAA.NDBC:LMDF1:1,2019-03-11T05:00:00Z,25.1760,-80.6330,1.5,27.95,1111122 
ENP,ioos.station.NOAA.NDBC:LMDF1:1,2019-03-11T06:00:00Z,25.1760,-80.6330,1.5,27.81,1111122 
ENP,ioos.station.NOAA.NDBC:LMDF1:1,2019-03-11T07:00:00Z,25.1760,-80.6330,1.5,27.72,1111122 
ENP,ioos.station.NOAA.NDBC:LMDF1:1,2019-03-11T08:00:00Z,25.1760,-80.6330,1.5,28.07,1111122 
ENP,ioos.station.NOAA.NDBC:LMDF1:1,2019-03-11T09:00:00Z,25.1760,-80.6330,1.5,28.49,1111122 
ENP,ioos.station.NOAA.NDBC:LMDF1:1,2019-03-11T10:00:00Z,25.1760,-80.6330,1.5,27.11,1111122 
ENP,ioos.station.NOAA.NDBC:LMDF1:1,2019-03-11T11:00:00Z,25.1760,-80.6330,1.5,28.34,1111122 
ENP,ioos.station.NOAA.NDBC:LMDF1:1,2019-03-11T12:00:00Z,25.1760,-80.6330,1.5,27.83,1111122 
ENP,ioos.station.NOAA.NDBC:LMDF1:1,2019-03-11T13:00:00Z,25.1760,-80.6330,1.5,28.34,1111122 
ENP,ioos.station.NOAA.NDBC:LMDF1:1,2019-03-11T14:00:00Z,25.1760,-80.6330,1.5,28.4,1111122 
ENP,ioos.station.NOAA.NDBC:LMDF1:1,2019-03-11T15:00:00Z,25.1760,-80.6330,1.5,24.48,1111122 
ENP,ioos.station.NOAA.NDBC:LMDF1:1,2019-03-11T16:00:00Z,25.1760,-80.6330,1.5,27.75,1111122 
ENP,ioos.station.NOAA.NDBC:LMDF1:1,2019-03-11T17:00:00Z,25.1760,-80.6330,1.5,27.9,11111222 
ENP,ioos.station.NOAA.NDBC:LMDF1:1,2019-03-11T18:00:00Z,25.1760,-80.6330,1.5,27.93,1111122 
ENP,ioos.station.NOAA.NDBC:LMDF1:1,2019-03-11T19:00:00Z,25.1760,-80.6330,1.5,27.83,1111122 
ENP,ioos.station.NOAA.NDBC:LMDF1:1,2019-03-11T20:00:00Z,25.1760,-80.6330,1.5,28.09,1111122 